Regional Weather Roundup
Issued by NWS

Home | Current Version | Previous Version | Text Only | Print | Product List | Glossary On
Versions: 1 2 3 4 5 6 7 8 9 10 11 12 13 14 15 16 17 18 19 20 21 22 23 24 25 26 27 28 29 30 31 32 33 34 35 36 37 38 39 40 41 42 43 44 45 46 47 48 49 50
000
ASUS45 KBOU 262007
RWRCO

WEATHER ROUNDUP FOR COLORADO
NATIONAL WEATHER SERVICE DENVER/BOULDER CO
200 PM MDT SAT JUL 26 2014

NOTE: "FAIR" INDICATES FEW OR NO CLOUDS BELOW 12000 FEET WITH NO
SIGNIFICANT WEATHER AND/OR OBSTRUCTIONS TO VISIBILITY.

COZ001>005-013-030-031-262100-
...NORTHWEST COLORADO...

CITY           SKY/WX    TMP DP  RH WIND       PRES   REMARKS
CRAIG          MOSUNNY   88  46  23 VRB7      30.22F
HAYDEN         MOSUNNY   84  45  24 W7        30.26F
MEEKER         MOSUNNY   85  45  24 S5        30.24F
MOUNT WERNER   NOT AVBL
STEAMBOAT SPGS MOSUNNY   82  47  28 CALM      30.29F
WALDEN         MOSUNNY   79  37  22 W8        30.38F
$$

COZ006>008-011-262100-
...WEST CENTRAL VALLEYS...

CITY           SKY/WX    TMP DP  RH WIND       PRES   REMARKS
GRAND JUNCTION MOSUNNY   89  49  25 SW10      30.14S
MONTROSE       PTSUNNY   88  51  28 NW14G25   30.22F
EAGLE          MOSUNNY   88  46  23 SW12G18   30.27F
RIFLE          MOSUNNY   91  39  16 VRB5      30.16F
DELTA          LGT RAIN  92  48  22 SW6       30.18S
NUCLA          PTSUNNY   91  36  14 NW12G17   30.27S
$$

COZ017>023-064>068-262100-
...SOUTHWEST COLORADO...

CITY           SKY/WX    TMP DP  RH WIND       PRES   REMARKS
DURANGO        MOSUNNY   90  38  16 NW10G20   30.26F
CORTEZ         SUNNY     92  42  17 NW13G20   30.23F
PAGOSA SPRINGS MOSUNNY   86  35  15 SW12G20   30.36S
TELLURIDE      MOSUNNY   75  45  33 CALM      30.50F
WOLF CREEK PAS NOT AVBL
$$

COZ009-010-012-014-032>034-037-058>063-262100-
...CENTRAL COLORADO...

CITY           SKY/WX    TMP DP  RH WIND       PRES   REMARKS
ASPEN          MOSUNNY   77  46  33 CALM      30.37F
BUENA VISTA    PTSUNNY   79  40  25 NW13      30.37F
COPPER MTN     PTSUNNY   64  39  39 W16G22    30.74F
BERTHOUD PASS  LGT RAIN  54  39  58 NW16G22   30.78F
COTTONWOOD PAS CLOUDY    72  36  26 CALM      30.56R
GUNNISON       NOT AVBL
KREMMLING      PTSUNNY   79  43  27 N9        30.36S
LEADVILLE      PTSUNNY   68  40  35 NW13G22   30.54S THUNDER
MONARCH PASS   MOSUNNY   66  39  37 W17G28    30.82F
SALIDA         PTSUNNY  N/A N/A N/A N9        30.39F
SUNLIGHT       PTSUNNY   72  48  43 CALM      30.65F
WILKERSON PASS NOT AVBL
$$

COZ069>075-262100-
...SAN LUIS VALLEY/SANGRE DE CRISTO MOUNTAINS...

CITY           SKY/WX    TMP DP  RH WIND       PRES   REMARKS
ALAMOSA        MOSUNNY   88  40  18 VRB3      30.33F
LA VETA PASS   NOT AVBL
SAGUACHE       MOSUNNY   77  45  31 S3        30.38F
$$

COZ035-036-038>040-262100-
...NORTHERN COLORADO FRONT RANGE...

CITY           SKY/WX    TMP DP  RH WIND       PRES   REMARKS
DENVER INTL AP PTSUNNY   86  43  22 E8        30.18F
DMNS CITY PARK   N/A     82  50  32 E3G10     30.17F
AURORA         PTSUNNY   81  51  35 NE7       30.21F
FRONT RANGE AP PTSUNNY   90  45  20 E7        30.20
ERIE MUNI ARPT PTSUNNY   87  47  24 E5        30.16S
BOULDER MUN AP PTSUNNY   88  52  29 E3        30.17S
CENTENNIAL     PTSUNNY   85  48  27 NE10      30.22S
BROOMFIELD     PTSUNNY   84  48  28 SE6       30.21
FORT COLLINS   PTSUNNY   77  54  44 S8        30.17S
LONGMONT       PTSUNNY   86  49  28 NE7       30.19R
$$

COZ041-046-047-076>085-087-088-262100-
...PIKES PEAK/PALMER DIVIDE AND SOUTHERN FOOTHILLS...

CITY           SKY/WX    TMP DP  RH WIND       PRES   REMARKS
COLO. SPRINGS  PTSUNNY   91  43  18 CALM      30.23F
A. F. ACADEMY  PTSUNNY   87  45  22 SE10      30.24F
ELLICOTT       MOSUNNY   91  40  16 E7G17     30.21F
FALCON         MOSUNNY   88  42  20 NE8       30.30S
FORT CARSON    MOSUNNY   91  47  21 S12       30.19F
LIMON          SUNNY     93  43  17 NE13G18   30.16F
MONUMENT HILL  MOSUNNY   81  43  26 NE12G21   30.30S
TRINIDAD       SUNNY     94  41  16 NE5G20    30.16F
$$

COZ042>045-048>051-090-091-262100-
...NORTHEAST COLORADO...

CITY           SKY/WX    TMP DP  RH WIND       PRES   REMARKS
GREELEY ARPT   MOSUNNY   79  48  34 S3        30.16S
AKRON          MOSUNNY   90  42  18 N10       30.12F
BURLINGTON     SUNNY     95  50  21 N16       30.07F
WRAY             N/A     97  46  17 N13G18    30.05S
STERLING       MOSUNNY   90  54  29 NE10      30.08S
HOLYOKE        SUNNY     95  48  20 N12       30.06R
FORT MORGAN    MOSUNNY   89  36  15 NE7       30.13F
$$

COZ086-089-092>099-262100-
...SOUTHEAST COLORADO...

CITY           SKY/WX    TMP DP  RH WIND       PRES   REMARKS
PUEBLO         SUNNY     97  45  16 SE14      30.08F
LA JUNTA       SUNNY     98  47  17 SE9       30.05F
LAMAR          SUNNY    100  52  19 E10G17    29.98F
SPRINGFIELD      N/A     97  51  21 VRB3      30.04F
$$



USA.gov is the U.S. government's official web portal to all federal, state and local government web resources and services.